This is the latest recevied weather packets stored in our database for station/object N8DMH-13. If no packets are shown the sender has not sent any weather packets the latest 10 day(s).
| Time | Temp. | Humidity | Pressure | Rain* | Wind** | Luminosity | Snow |
|---|---|---|---|---|---|---|---|
| 1788017035 | 25° C | 68% | 1018.4 hPa | 0 mm | - | - | - |
| 1788016734 | 24.44° C | 68% | 1018.4 hPa | 0 mm | - | - | - |
| 1788016404 | 24.44° C | 68% | 1018.2 hPa | 0 mm | - | - | - |
| 1788016104 | 24.44° C | 69% | 1018.3 hPa | 0 mm | - | - | - |
| 1788015774 | 23.89° C | 69% | 1018.4 hPa | 0 mm | - | - | - |
| 1788015475 | 23.89° C | 70% | 1018.3 hPa | 0 mm | - | - | - |
| 1788015145 | 23.33° C | 70% | 1018.2 hPa | 0 mm | - | - | - |
| 1788014845 | 23.89° C | 72% | 1018.2 hPa | 0 mm | - | - | - |
| 1788014515 | 23.33° C | 72% | 1018.4 hPa | 0 mm | - | - | - |
| 1788014213 | 23.33° C | 72% | 1018.2 hPa | 0 mm | - | - | - |
| 1788013884 | 23.33° C | 73% | 1018.3 hPa | 0 mm | - | - | - |
| 1788013583 | 22.78° C | 75% | 1018.3 hPa | 0 mm | - | - | - |
| 1788013285 | 22.22° C | 76% | 1018.5 hPa | 0 mm | - | - | - |
| 1788013059 | 22.22° C | 77% | 1018.6 hPa | 0 mm | - | - | - |
| 1788012953 | 22.22° C | 77% | 1018.6 hPa | 0 mm | - | - | - |
| 1788012742 | 21.67° C | 78% | 1018.6 hPa | 0 mm | - | - | - |
| 1788012658 | 21.67° C | 78% | 1018.6 hPa | 0 mm | - | - | - |
| 1788012353 | 21.67° C | 78% | 1018.8 hPa | 0 mm | - | - | - |
| 1788012053 | 21.67° C | 78% | 1018.7 hPa | 0 mm | - | - | - |
| 1788011722 | 21.11° C | 78% | 1018.6 hPa | 0 mm | - | - | - |
| 1788011392 | 21.11° C | 78% | 1018.6 hPa | 0 mm | - | - | - |
| 1788011177 | 21.11° C | 78% | 1018.6 hPa | 0 mm | - | - | - |
| 1788011092 | 21.11° C | 78% | 1018.6 hPa | 0 mm | - | - | - |
| 1788010762 | 21.11° C | 77% | 1018.5 hPa | 0 mm | - | - | - |
| 1788010497 | 21.11° C | 77% | 1018.7 hPa | 0 mm | - | - | - |
* Rain latest hour (hover to see other rain measurements)
** Current wind speed in m/s (hover to see current wind gust speed)